Lincolnton, NC

5:05 AM EDT on April 24, 2017 (GMT -0400)
Lincolnton-Lincoln County Regional

Weather History for KIPJ - January, 2014

Change the Weather History Date:

Friday, January 24, 2014

  Actual Average (KCLT) Record (KCLT)
Temperature  
Mean Temperature 17 °F -  
Max Temperature 28 °F 50 °F 74 °F (1967)
Min Temperature 6 °F 32 °F 7 °F (1963)
Degree Days  
Heating Degree Days 48    
Moisture  
Dew Point -8 °F    
Average Humidity 31    
Maximum Humidity 64    
Minimum Humidity 17    
Precipitation  
Precipitation 0.00 in - - ()
Sea Level Pressure  
Sea Level Pressure 30.44 in    
Wind  
Wind Speed 5 mph (WNW)    
Max Wind Speed 12 mph    
Max Gust Speed 17 mph    
Visibility 10 miles    
Events      
Averages and records for this station are not official NWS values.
T = Trace of Precipitation, MM = Missing Value Source: NWS Daily Summary

Daily Weather History Graph

Daily Weather History Graph

Search for Another Location

Airport or City:

Trip Planner

Search our weather history database for the weather conditions in past years. The results will help you decide how hot, cold, wet, or windy it might be!

Date:

Astronomy

Jan. 24, 2014 Rise Set
Actual Time 7:29 AM EST 5:44 PM EST
Civil Twilight 7:02 AM EST 6:11 PM EST
Nautical Twilight 6:31 AM EST 6:42 PM EST
Astronomical Twilight 6:01 AM EST 7:12 PM EST
Moon 12:58 AM EST 11:59 AM EST
Length of Visible Light 11h 09m
Length of Day
10h 14m
Last Quarter, 45% of the Moon is Illuminated
Jan 24
Last Quarter
Jan 30
New
Feb 6
First Quarter
Feb 14
Full
Feb 22
Last Quarter

Hourly Weather History & Observations

Time (EST) Temp. Windchill Dew Point Humidity Pressure Visibility Wind Dir Wind Speed Gust Speed Precip Events Conditions
12:15 AM 22.5 °F 15.1 °F -5.3 °F 30% 30.41 in 10.0 mi NNW 5.8 mph 16.1 mph N/A   Overcast
12:35 AM 21.9 °F 10.4 °F -4.2 °F 32% 30.42 in 10.0 mi North 11.5 mph 16.1 mph N/A   Overcast
12:55 AM 21.0 °F 11.4 °F -4.2 °F 33% 30.43 in 10.0 mi North 8.1 mph 16.1 mph N/A   Overcast
1:15 AM 20.5 °F 12.8 °F -3.3 °F 35% 30.45 in 10.0 mi North 5.8 mph - N/A   Mostly Cloudy
1:35 AM 19.4 °F 11.5 °F -3.5 °F 37% 30.46 in 10.0 mi North 5.8 mph 17.3 mph N/A   Scattered Clouds
1:55 AM 18.5 °F 9.3 °F -4.7 °F 36% 30.46 in 10.0 mi North 6.9 mph - N/A   Clear
2:15 AM 18.0 °F 6.9 °F -5.6 °F 35% 30.47 in 10.0 mi NNW 9.2 mph - N/A   Clear
2:35 AM 17.2 °F 5.2 °F -6.5 °F 35% 30.48 in 10.0 mi NNE 10.4 mph - N/A   Clear
2:55 AM 17.1 °F 6.6 °F -6.9 °F 34% 30.49 in 10.0 mi NNW 8.1 mph - N/A   Clear
3:15 AM 16.2 °F 7.6 °F -8.0 °F 34% 30.51 in 10.0 mi North 5.8 mph - N/A   Clear
3:35 AM 15.4 °F 6.8 °F -7.8 °F 35% 30.52 in 10.0 mi North 5.8 mph - N/A   Clear
3:55 AM 14.7 °F 4.8 °F -8.5 °F 35% 30.52 in 10.0 mi NNW 6.9 mph - N/A   Clear
4:15 AM 14.0 °F 5.1 °F -8.3 °F 37% 30.53 in 10.0 mi NW 5.8 mph - N/A   Clear
4:35 AM 13.6 °F 4.6 °F -10.3 °F 34% 30.53 in 10.0 mi NW 5.8 mph 9.2 mph N/A   Clear
4:55 AM 12.9 °F 2.6 °F -10.7 °F 34% 30.53 in 10.0 mi NNW 6.9 mph - N/A   Clear
5:15 AM 12.6 °F 3.4 °F -10.8 °F 35% 30.53 in 10.0 mi NNW 5.8 mph - N/A   Clear
5:35 AM 12.0 °F 5.9 °F -10.7 °F 36% 30.54 in 10.0 mi NW 3.5 mph - N/A   Clear
5:55 AM 11.3 °F 5.1 °F -8.7 °F 40% 30.55 in 10.0 mi NW 3.5 mph - N/A   Clear
6:15 AM 11.3 °F - -8.7 °F 40% 30.56 in 10.0 mi Calm Calm - N/A   Clear
6:35 AM 10.8 °F - -8.1 °F 42% 30.57 in 10.0 mi Calm Calm - N/A   Clear
6:55 AM 10.4 °F - -7.2 °F 45% 30.57 in 10.0 mi Calm Calm - N/A   Clear
7:15 AM 8.4 °F - -6.7 °F 50% 30.57 in 10.0 mi Calm Calm - N/A   Clear
7:35 AM 7.0 °F - -5.8 °F 56% 30.56 in 10.0 mi Calm Calm - N/A   Clear
7:55 AM 6.3 °F - -3.5 °F 64% 30.57 in 10.0 mi Calm Calm - N/A   Clear
8:15 AM 9.1 °F - -1.7 °F 62% 30.57 in 10.0 mi Calm Calm - N/A   Clear
8:35 AM 11.3 °F - -4.2 °F 50% 30.57 in 10.0 mi Calm Calm - N/A   Clear
8:55 AM 12.7 °F - -7.6 °F 40% 30.57 in 10.0 mi Calm Calm - N/A   Clear
9:15 AM 14.0 °F 8.2 °F -7.4 °F 38% 30.58 in 10.0 mi North 3.5 mph - N/A   Clear
9:35 AM 14.7 °F - -8.5 °F 35% 30.58 in 10.0 mi Calm Calm - N/A   Clear
9:55 AM 16.3 °F 7.8 °F -7.8 °F 34% 30.58 in 10.0 mi East 5.8 mph - N/A   Clear
10:15 AM 17.1 °F 10.0 °F -7.6 °F 33% 30.59 in 10.0 mi NW 4.6 mph - N/A   Clear
10:35 AM 17.1 °F 10.0 °F -8.0 °F 33% 30.59 in 10.0 mi WNW 4.6 mph - N/A   Clear
10:55 AM 17.8 °F - -8.3 °F 31% 30.58 in 10.0 mi Calm Calm - N/A   Clear
11:15 AM 19.0 °F - -8.7 °F 29% 30.58 in 10.0 mi Calm Calm - N/A   Clear
11:35 AM 20.3 °F 12.5 °F -8.7 °F 28% 30.57 in 10.0 mi WNW 5.8 mph - N/A   Clear
11:55 AM 21.0 °F 14.6 °F -8.1 °F 27% 30.55 in 10.0 mi NNW 4.6 mph - N/A   Clear
12:15 PM 22.1 °F 17.4 °F -7.6 °F 27% 30.54 in 10.0 mi NNW 3.5 mph - N/A   Clear
12:35 PM 23.2 °F 15.0 °F -10.3 °F 23% 30.51 in 10.0 mi North 6.9 mph - N/A   Clear
12:55 PM 24.3 °F 18.4 °F -9.2 °F 23% 30.50 in 10.0 mi WNW 4.6 mph - N/A   Clear
1:15 PM 25.0 °F 19.3 °F -9.0 °F 22% 30.48 in 10.0 mi NNE 4.6 mph - N/A   Clear
1:35 PM 25.0 °F 19.3 °F -11.4 °F 20% 30.47 in 10.0 mi NNE 4.6 mph - N/A   Clear
1:55 PM 25.7 °F - -11.4 °F 19% 30.45 in 10.0 mi Calm Calm - N/A   Clear
2:15 PM 27.0 °F 20.5 °F -12.5 °F 17% 30.44 in 10.0 mi SW 5.8 mph - N/A   Clear
2:35 PM 27.7 °F 21.3 °F -12.3 °F 17% 30.42 in 10.0 mi WNW 5.8 mph - N/A   Clear
2:55 PM 27.7 °F 20.4 °F -11.9 °F 17% 30.41 in 10.0 mi West 6.9 mph - N/A   Clear
3:15 PM 28.2 °F 21.0 °F -10.8 °F 18% 30.40 in 10.0 mi WSW 6.9 mph - N/A   Clear
3:35 PM 27.3 °F - -12.8 °F 17% 30.39 in 10.0 mi Calm Calm - N/A   Clear
3:55 PM 28.6 °F 19.3 °F -11.6 °F 17% 30.38 in 10.0 mi West 10.4 mph - N/A   Clear
4:15 PM 28.2 °F 23.1 °F -11.9 °F 17% 30.37 in 10.0 mi SSW 4.6 mph - N/A   Clear
4:35 PM 28.2 °F 20.2 °F -10.3 °F 18% 30.37 in 10.0 mi WSW 8.1 mph - N/A   Clear
4:55 PM 27.5 °F 18.6 °F -9.8 °F 19% 30.36 in 10.0 mi West 9.2 mph - N/A   Clear
5:15 PM 27.1 °F 21.8 °F -9.8 °F 20% 30.36 in 10.0 mi SW 4.6 mph - N/A   Clear
5:35 PM 25.9 °F 20.3 °F -10.7 °F 20% 30.35 in 10.0 mi SW 4.6 mph - N/A   Clear
5:55 PM 25.0 °F - -11.6 °F 20% 30.34 in 10.0 mi Calm Calm - N/A   Clear
6:15 PM 24.3 °F - -11.2 °F 21% 30.33 in 10.0 mi Calm Calm - N/A   Clear
6:35 PM 24.1 °F - -11.6 °F 21% 30.33 in 10.0 mi Calm Calm - N/A   Clear
6:55 PM 23.4 °F 18.9 °F -11.2 °F 22% 30.33 in 10.0 mi WSW 3.5 mph - N/A   Clear
7:15 PM 21.4 °F 16.6 °F -8.1 °F 27% 30.32 in 10.0 mi WSW 3.5 mph - N/A   Clear
7:35 PM 20.3 °F - -9.0 °F 27% 30.32 in 10.0 mi Calm Calm - N/A   Clear
7:55 PM 19.4 °F - -6.2 °F 32% 30.31 in 10.0 mi Calm Calm - N/A   Clear
8:15 PM 18.9 °F - -6.0 °F 33% 30.31 in 10.0 mi Calm Calm - N/A   Clear
8:35 PM 19.4 °F - -8.7 °F 29% 30.30 in 10.0 mi Calm Calm - N/A   Clear
8:55 PM 18.7 °F 13.5 °F -6.0 °F 33% 30.29 in 10.0 mi SW 3.5 mph - N/A   Clear
9:15 PM 20.3 °F 15.4 °F -8.3 °F 28% 30.28 in 10.0 mi SW 3.5 mph - N/A   Clear
9:35 PM 19.9 °F - -8.0 °F 29% 30.27 in 10.0 mi Calm Calm - N/A   Clear
9:55 PM 19.2 °F 14.1 °F -7.6 °F 30% 30.26 in 10.0 mi SW 3.5 mph - N/A   Clear
10:15 PM 19.0 °F 13.9 °F -7.2 °F 31% 30.25 in 10.0 mi SW 3.5 mph - N/A   Clear
10:35 PM 19.0 °F 12.3 °F -6.9 °F 32% 30.25 in 10.0 mi SW 4.6 mph - N/A   Clear
10:55 PM 18.5 °F 13.3 °F -6.7 °F 33% 30.24 in 10.0 mi SW 3.5 mph - N/A   Clear
11:15 PM 18.9 °F 10.8 °F -6.9 °F 32% 30.24 in 10.0 mi SW 5.8 mph - N/A   Clear
11:35 PM 19.2 °F 11.3 °F -6.9 °F 31% 30.23 in 10.0 mi SW 5.8 mph - N/A   Clear
11:55 PM 18.9 °F - -7.2 °F 31% 30.21 in 10.0 mi Calm Calm - N/A   Clear